Flag for U.S.A. Weather past 2 weeks in Albany, New York, U.S.A.

Now
75 °F

Passing clouds.


Feels Like: 78 °F
Forecast: 59 / 83 °F
Wind: 5 mph from Southeast

Location: Albany County Airport

Current Time: Aug 2, 2015 at 10:35:56 AM

Latest Report: Aug 2, 2015 at 9:51 AM


Visibility: 10 mi

Pressure: 29.90 "Hg

Humidity: 54%

Dew point: 57 °F

Location of AlbanyLocation

Historic Weather in Albany — Graph

°F

Albany temperature yesterday

Maximum temperature yesterday: 85 °F (at 3:51 PM)
Minimum temperature yesterday: 65 °F (at 3:51 AM)
Average temperature yesterday: 74 °F

Past Weeks' High & Low Weather Summary

 TemperatureHumidityPressure
High94 °F (Jul 29, 3:51 PM)93% (Jul 19, 6:51 AM)30.02 "Hg (Jul 19, 6:51 AM)
Low55 °F (Jul 24, 5:51 AM)32% (Jul 20, 2:51 PM)29.57 "Hg (Jul 21, 2:51 PM)
Average75 °F65%29.85 "Hg
* Reported Jul 18 8:51 AM — Aug 2 8:51 AM, Albany, Weather by CustomWeather, © 2015

Note: Actual official high and low records may vary slightly from our data, if they occured in-between our weather recording intervals... More about our weather records

Advertising

Albany weather history for previous 24 hours

 ConditionsComfort  
Time TempWeatherWind HumidityBarometerVisibility
8:51 AM
Sun, Aug 2
71 °FPassing clouds.5 mph63%29.89 "Hg10 mi
7:51 AM66 °FPassing clouds.6 mph73%29.90 "Hg10 mi
6:51 AM62 °FPassing clouds.5 mph83%29.88 "Hg10 mi
5:51 AM58 °FPassing clouds.3 mph87%29.87 "Hg10 mi
4:51 AM60 °FClear.No wind83%29.86 "Hg10 mi
3:51 AM60 °FClear.No wind80%29.86 "Hg10 mi
2:51 AM60 °FClear.No wind80%29.85 "Hg10 mi
1:51 AM63 °FClear.3 mph73%29.85 "Hg10 mi
12:51 AM64 °FClear.No wind70%29.86 "Hg10 mi
11:51 PM
Sat, Aug 1
65 °FClear.5 mph70%29.85 "Hg10 mi
10:51 PM68 °FClear.3 mph61%29.85 "Hg10 mi
9:51 PM72 °FClear.No wind53%29.84 "Hg10 mi
8:51 PM73 °FPassing clouds.6 mph51%29.82 "Hg10 mi
7:51 PM76 °FPassing clouds.8 mph47%29.80 "Hg10 mi
6:51 PM80 °FPassing clouds.9 mph42%29.78 "Hg10 mi
5:51 PM82 °FPassing clouds.16 mph38%29.76 "Hg10 mi
4:51 PM83 °FPassing clouds.15 mph40%29.75 "Hg10 mi
3:51 PM85 °FScattered clouds.14 mph36%29.76 "Hg10 mi
2:51 PM84 °FScattered clouds.17 mph37%29.77 "Hg10 mi
1:51 PM83 °FScattered clouds.15 mph38%29.77 "Hg10 mi
12:51 PM82 °FScattered clouds.16 mph41%29.78 "Hg10 mi
11:51 AM81 °FScattered clouds.10 mph49%29.79 "Hg10 mi
10:51 AM80 °FPartly sunny.10 mph52%29.78 "Hg10 mi
Weather by CustomWeather, © 2015

See weather overviewHow to use our weather pages